This is the latest recevied weather packets stored in our database for station/object YU7OR-2. If no packets are shown the sender has not sent any weather packets the latest 10 day(s).
| Time | Temp. | Humidity | Pressure | Rain* | Wind** | Luminosity | Snow |
|---|---|---|---|---|---|---|---|
| 1777262554 | 5° C | 58% | 1019.4 hPa | 0 mm | - | - | - |
| 1777262309 | 5° C | 56% | 1019.3 hPa | 0 mm | - | - | - |
| 1777262059 | 5.56° C | 57% | 1019.3 hPa | 0 mm | - | - | - |
| 1777261779 | 5° C | 56% | 1019.2 hPa | 0 mm | - | - | - |
| 1777261494 | 5° C | 56% | 1019.2 hPa | 0 mm | - | - | - |
| 1777261199 | 5° C | 56% | 1019.3 hPa | 0 mm | - | - | - |
| 1777260949 | 5° C | 56% | 1019.2 hPa | 0 mm | - | - | - |
| 1777260694 | 5° C | 56% | 1019.2 hPa | 0 mm | - | - | - |
| 1777260414 | 5° C | 57% | 1019.2 hPa | 0 mm | - | - | - |
| 1777260144 | 4.44° C | 57% | 1019.2 hPa | 0 mm | - | - | - |
| 1777259894 | 4.44° C | 57% | 1019.1 hPa | 0 mm | - | - | - |
| 1777259644 | 4.44° C | 58% | 1019 hPa | 0 mm | - | - | - |
| 1777259394 | 4.44° C | 60% | 1019.3 hPa | 0 mm | - | - | - |
| 1777259129 | 3.89° C | 63% | 1019.2 hPa | 0 mm | - | - | - |
| 1777258839 | 3.89° C | 64% | 1019.4 hPa | 0 mm | - | - | - |
| 1777258594 | 3.89° C | 64% | 1019.4 hPa | 0 mm | - | - | - |
| 1777258319 | 3.89° C | 64% | 1019.6 hPa | 0 mm | - | - | - |
| 1777258019 | 3.89° C | 64% | 1019.3 hPa | 0 mm | - | - | - |
| 1777257764 | 3.89° C | 64% | 1019.4 hPa | 0 mm | - | - | - |
| 1777257474 | 4.44° C | 66% | 1019.6 hPa | 0 mm | - | - | - |
| 1777257204 | 4.44° C | 65% | 1019.4 hPa | 0 mm | - | - | - |
| 1777256954 | 4.44° C | 65% | 1019.4 hPa | 0 mm | - | - | - |
| 1777256659 | 5° C | 63% | 1019.4 hPa | 0 mm | - | - | - |
| 1777256364 | 5.56° C | 62% | 1019.4 hPa | 0 mm | - | - | - |
| 1777256114 | 5.56° C | 60% | 1019.4 hPa | 0 mm | - | - | - |
* Rain latest hour (hover to see other rain measurements)
** Current wind speed in m/s (hover to see current wind gust speed)